M I D A S
Marine Information and Data Acquisition System
Tripno 1406 of the Zeeleeuw from 2007-09-11 08:00:00 to 2007-09-11 17:00:00
Back to CruiseResearch ActivitiesStationsMapUnderway DataData graphs

EquipmentUnitsComment
TimeDGPSUTC
LatitudeDGPSDM.mWGS84
LongitudeDGPSDM.mWGS84
TemperatureSBE03/SBE38deg celciusITS90
ConductivitySBE21S/mITS90
SalinitySBE21 Practical Salinity Units
ChlorophylAChelsea fluorimeterg/lCalibrated in Aceton
Missing or incorrect values are displayed as -999
Sea surface data collected by the RV Zeeleeuw from 2007-09-11 08:00:00 to 2007-09-11 17:00:00
                                                                                    Next 1000 lines
Time Latitude Longitude Temperature Conductivity Salinity ChlorophylA
2007-09-11 08:00:10 51°15.052 2°52.957 -999 -999 -999 -999
2007-09-11 08:00:15 51°15.058 2°52.932 -999 -999 -999 -999
2007-09-11 08:00:20 51°15.063 2°52.906 -999 -999 -999 -999
2007-09-11 08:00:25 51°15.069 2°52.879 -999 -999 -999 -999
2007-09-11 08:00:30 51°15.075 2°52.854 -999 -999 -999 -999
2007-09-11 08:00:35 51°15.081 2°52.828 -999 -999 -999 -999
2007-09-11 08:00:40 51°15.086 2°52.801 -999 -999 -999 -999
2007-09-11 08:00:45 51°15.092 2°52.775 -999 -999 -999 -999
2007-09-11 08:00:50 51°15.097 2°52.749 -999 -999 -999 -999
2007-09-11 08:00:55 51°15.104 2°52.723 -999 -999 -999 -999
2007-09-11 08:01:00 51°15.11 2°52.697 -999 -999 -999 -999
2007-09-11 08:01:05 51°15.117 2°52.67 -999 -999 -999 -999
2007-09-11 08:01:10 51°15.122 2°52.643 -999 -999 -999 -999
2007-09-11 08:01:15 51°15.128 2°52.617 -999 -999 -999 -999
2007-09-11 08:01:20 51°15.134 2°52.59 -999 -999 -999 -999
2007-09-11 08:01:25 51°15.14 2°52.564 -999 -999 -999 -999
2007-09-11 08:01:30 51°15.146 2°52.537 -999 -999 -999 -999
2007-09-11 08:01:35 51°15.152 2°52.511 -999 -999 -999 -999
2007-09-11 08:01:40 51°15.159 2°52.484 -999 -999 -999 -999
2007-09-11 08:01:45 51°15.165 2°52.458 -999 -999 -999 -999
2007-09-11 08:01:50 51°15.171 2°52.431 -999 -999 -999 -999
2007-09-11 08:01:55 51°15.177 2°52.405 -999 -999 -999 -999
2007-09-11 08:02:00 51°15.182 2°52.377 -999 -999 -999 -999
2007-09-11 08:02:05 51°15.187 2°52.35 -999 -999 -999 -999
2007-09-11 08:02:10 51°15.193 2°52.323 -999 -999 -999 -999
2007-09-11 08:02:15 51°15.199 2°52.296 -999 -999 -999 -999
2007-09-11 08:02:20 51°15.204 2°52.27 -999 -999 -999 -999
2007-09-11 08:02:25 51°15.209 2°52.242 -999 -999 -999 -999
2007-09-11 08:02:30 51°15.214 2°52.215 -999 -999 -999 -999
2007-09-11 08:02:35 51°15.219 2°52.187 -999 -999 -999 -999
2007-09-11 08:02:40 51°15.223 2°52.159 -999 -999 -999 -999
2007-09-11 08:02:45 51°15.228 2°52.131 -999 -999 -999 -999
2007-09-11 08:02:50 51°15.233 2°52.103 -999 -999 -999 -999
2007-09-11 08:02:55 51°15.237 2°52.074 -999 -999 -999 -999
2007-09-11 08:03:00 51°15.243 2°52.046 -999 -999 -999 -999
2007-09-11 08:03:05 51°15.247 2°52.017 -999 -999 -999 -999
2007-09-11 08:03:10 51°15.251 2°51.989 -999 -999 -999 -999
2007-09-11 08:03:15 51°15.256 2°51.961 -999 -999 -999 -999
2007-09-11 08:03:20 51°15.26 2°51.933 -999 -999 -999 -999
2007-09-11 08:03:25 51°15.264 2°51.906 -999 -999 -999 -999
2007-09-11 08:03:30 51°15.268 2°51.878 -999 -999 -999 -999
2007-09-11 08:03:35 51°15.273 2°51.85 -999 -999 -999 -999
2007-09-11 08:03:40 51°15.277 2°51.823 -999 -999 -999 -999
2007-09-11 08:03:45 51°15.281 2°51.795 -999 -999 -999 -999
2007-09-11 08:03:50 51°15.286 2°51.767 -999 -999 -999 -999
2007-09-11 08:03:55 51°15.291 2°51.74 -999 -999 -999 -999
2007-09-11 08:04:00 51°15.296 2°51.713 -999 -999 -999 -999
2007-09-11 08:04:05 51°15.3 2°51.685 -999 -999 -999 -999
2007-09-11 08:04:10 51°15.305 2°51.657 -999 -999 -999 -999
2007-09-11 08:04:15 51°15.31 2°51.63 -999 -999 -999 -999
2007-09-11 08:04:20 51°15.315 2°51.602 -999 -999 -999 -999
2007-09-11 08:04:25 51°15.32 2°51.574 -999 -999 -999 -999
2007-09-11 08:04:30 51°15.324 2°51.546 -999 -999 -999 -999
2007-09-11 08:04:35 51°15.329 2°51.519 -999 -999 -999 -999
2007-09-11 08:04:40 51°15.334 2°51.492 -999 -999 -999 -999
2007-09-11 08:04:45 51°15.339 2°51.464 -999 -999 -999 -999
2007-09-11 08:04:50 51°15.344 2°51.436 -999 -999 -999 -999
2007-09-11 08:04:55 51°15.349 2°51.408 -999 -999 -999 -999
2007-09-11 08:05:00 51°15.353 2°51.38 -999 -999 -999 -999
2007-09-11 08:05:05 51°15.358 2°51.353 -999 -999 -999 -999
2007-09-11 08:05:10 51°15.362 2°51.325 -999 -999 -999 -999
2007-09-11 08:05:15 51°15.367 2°51.298 -999 -999 -999 -999
2007-09-11 08:05:20 51°15.371 2°51.27 -999 -999 -999 -999
2007-09-11 08:05:25 51°15.375 2°51.242 -999 -999 -999 -999
2007-09-11 08:05:30 51°15.38 2°51.215 -999 -999 -999 -999
2007-09-11 08:05:36 51°15.385 2°51.181 -999 -999 -999 -999
2007-09-11 08:05:40 51°15.389 2°51.159 -999 -999 -999 -999
2007-09-11 08:05:45 51°15.393 2°51.131 -999 -999 -999 -999
2007-09-11 08:05:50 51°15.398 2°51.104 -999 -999 -999 -999
2007-09-11 08:05:55 51°15.403 2°51.076 -999 -999 -999 -999
2007-09-11 08:06:00 51°15.407 2°51.048 -999 -999 -999 -999
2007-09-11 08:06:05 51°15.413 2°51.022 -999 -999 -999 -999
2007-09-11 08:06:10 51°15.417 2°50.994 -999 -999 -999 -999
2007-09-11 08:06:15 51°15.423 2°50.967 -999 -999 -999 -999
2007-09-11 08:06:20 51°15.427 2°50.938 -999 -999 -999 -999
2007-09-11 08:06:25 51°15.433 2°50.911 -999 -999 -999 -999
2007-09-11 08:06:30 51°15.438 2°50.884 -999 -999 -999 -999
2007-09-11 08:06:35 51°15.443 2°50.857 -999 -999 -999 -999
2007-09-11 08:06:40 51°15.448 2°50.831 -999 -999 -999 -999
2007-09-11 08:06:45 51°15.453 2°50.804 -999 -999 -999 -999
2007-09-11 08:06:50 51°15.46 2°50.778 -999 -999 -999 -999
2007-09-11 08:06:55 51°15.465 2°50.752 -999 -999 -999 -999
2007-09-11 08:07:00 51°15.471 2°50.726 -999 -999 -999 -999
2007-09-11 08:07:05 51°15.477 2°50.7 -999 -999 -999 -999
2007-09-11 08:07:10 51°15.484 2°50.674 -999 -999 -999 -999
2007-09-11 08:07:15 51°15.49 2°50.649 -999 -999 -999 -999
2007-09-11 08:07:20 51°15.497 2°50.623 -999 -999 -999 -999
2007-09-11 08:07:25 51°15.504 2°50.598 -999 -999 -999 -999
2007-09-11 08:07:30 51°15.511 2°50.573 -999 -999 -999 -999
2007-09-11 08:07:35 51°15.519 2°50.547 -999 -999 -999 -999
2007-09-11 08:07:40 51°15.525 2°50.521 -999 -999 -999 -999
2007-09-11 08:07:45 51°15.531 2°50.498 -999 -999 -999 -999
2007-09-11 08:07:52 51°15.54 2°50.465 -999 -999 -999 -999
2007-09-11 08:07:56 51°15.545 2°50.445 -999 -999 -999 -999
2007-09-11 08:08:01 51°15.552 2°50.421 -999 -999 -999 -999
2007-09-11 08:08:06 51°15.559 2°50.396 -999 -999 -999 -999
2007-09-11 08:08:11 51°15.565 2°50.371 -999 -999 -999 -999
2007-09-11 08:08:16 51°15.572 2°50.346 -999 -999 -999 -999
2007-09-11 08:08:21 51°15.579 2°50.322 -999 -999 -999 -999
2007-09-11 08:08:25 51°15.584 2°50.302 -999 -999 -999 -999
2007-09-11 08:08:31 51°15.592 2°50.273 -999 -999 -999 -999
2007-09-11 08:08:36 51°15.599 2°50.249 -999 -999 -999 -999
2007-09-11 08:08:40 51°15.605 2°50.23 -999 -999 -999 -999
2007-09-11 08:08:45 51°15.613 2°50.206 -999 -999 -999 -999
2007-09-11 08:08:50 51°15.621 2°50.183 -999 -999 -999 -999
2007-09-11 08:08:55 51°15.63 2°50.16 -999 -999 -999 -999
2007-09-11 08:09:00 51°15.638 2°50.138 -999 -999 -999 -999
2007-09-11 08:09:05 51°15.647 2°50.116 -999 -999 -999 -999
2007-09-11 08:09:10 51°15.655 2°50.091 -999 -999 -999 -999
2007-09-11 08:09:15 51°15.664 2°50.07 -999 -999 -999 -999
2007-09-11 08:09:20 51°15.672 2°50.048 -999 -999 -999 -999
2007-09-11 08:09:26 51°15.681 2°50.024 -999 -999 -999 -999
2007-09-11 08:09:31 51°15.69 2°50.003 -999 -999 -999 -999
2007-09-11 08:09:36 51°15.698 2°49.982 -999 -999 -999 -999
2007-09-11 08:09:41 51°15.706 2°49.959 -999 -999 -999 -999
2007-09-11 08:09:46 51°15.715 2°49.938 -999 -999 -999 -999
2007-09-11 08:09:51 51°15.723 2°49.917 -999 -999 -999 -999
2007-09-11 08:09:56 51°15.732 2°49.896 -999 -999 -999 -999
2007-09-11 08:10:00 51°15.739 2°49.879 -999 -999 -999 -999
2007-09-11 08:10:05 51°15.747 2°49.858 -999 -999 -999 -999
2007-09-11 08:10:10 51°15.756 2°49.837 -999 -999 -999 -999
2007-09-11 08:10:15 51°15.765 2°49.815 -999 -999 -999 -999
2007-09-11 08:10:20 51°15.774 2°49.794 -999 -999 -999 -999
2007-09-11 08:10:25 51°15.782 2°49.772 -999 -999 -999 -999
2007-09-11 08:10:30 51°15.791 2°49.751 -999 -999 -999 -999
2007-09-11 08:10:35 51°15.801 2°49.729 -999 -999 -999 -999
2007-09-11 08:10:40 51°15.81 2°49.707 -999 -999 -999 -999
2007-09-11 08:10:45 51°15.818 2°49.687 -999 -999 -999 -999
2007-09-11 08:10:50 51°15.827 2°49.665 -999 -999 -999 -999
2007-09-11 08:10:55 51°15.836 2°49.644 -999 -999 -999 -999
2007-09-11 08:11:00 51°15.844 2°49.622 -999 -999 -999 -999
2007-09-11 08:11:05 51°15.854 2°49.601 -999 -999 -999 -999
2007-09-11 08:11:10 51°15.861 2°49.579 -999 -999 -999 -999
2007-09-11 08:11:16 51°15.872 2°49.553 -999 -999 -999 -999
2007-09-11 08:11:21 51°15.881 2°49.532 -999 -999 -999 -999
2007-09-11 08:11:25 51°15.887 2°49.515 -999 -999 -999 -999
2007-09-11 08:11:31 51°15.897 2°49.489 -999 -999 -999 -999
2007-09-11 08:11:36 51°15.906 2°49.469 -999 -999 -999 -999
2007-09-11 08:11:40 51°15.913 2°49.451 -999 -999 -999 -999
2007-09-11 08:11:45 51°15.922 2°49.429 -999 -999 -999 -999
2007-09-11 08:11:50 51°15.931 2°49.408 -999 -999 -999 -999
2007-09-11 08:11:55 51°15.94 2°49.385 -999 -999 -999 -999
2007-09-11 08:12:00 51°15.95 2°49.363 -999 -999 -999 -999
2007-09-11 08:12:05 51°15.958 2°49.34 -999 -999 -999 -999
2007-09-11 08:12:10 51°15.968 2°49.318 -999 -999 -999 -999
2007-09-11 08:12:15 51°15.976 2°49.294 -999 -999 -999 -999
2007-09-11 08:12:20 51°15.985 2°49.272 -999 -999 -999 -999
2007-09-11 08:12:26 51°15.995 2°49.247 -999 -999 -999 -999
2007-09-11 08:12:31 51°16.004 2°49.225 -999 -999 -999 -999
2007-09-11 08:12:36 51°16.012 2°49.203 -999 -999 -999 -999
2007-09-11 08:12:40 51°16.019 2°49.185 -999 -999 -999 -999
2007-09-11 08:12:45 51°16.028 2°49.163 -999 -999 -999 -999
2007-09-11 08:12:50 51°16.036 2°49.14 -999 -999 -999 -999
2007-09-11 08:12:55 51°16.044 2°49.117 -999 -999 -999 -999
2007-09-11 08:13:00 51°16.051 2°49.093 -999 -999 -999 -999
2007-09-11 08:13:05 51°16.056 2°49.068 -999 -999 -999 -999
2007-09-11 08:13:10 51°16.061 2°49.043 -999 -999 -999 -999
2007-09-11 08:13:15 51°16.063 2°49.019 -999 -999 -999 -999
2007-09-11 08:13:20 51°16.065 2°48.996 -999 -999 -999 -999
2007-09-11 08:13:25 51°16.066 2°48.975 -999 -999 -999 -999
2007-09-11 08:13:30 51°16.066 2°48.954 -999 -999 -999 -999
2007-09-11 08:13:35 51°16.065 2°48.935 -999 -999 -999 -999
2007-09-11 08:13:40 51°16.063 2°48.917 -999 -999 -999 -999
2007-09-11 08:13:45 51°16.062 2°48.9 -999 -999 -999 -999
2007-09-11 08:13:50 51°16.06 2°48.883 -999 -999 -999 -999
2007-09-11 08:13:55 51°16.059 2°48.867 -999 -999 -999 -999
2007-09-11 08:14:00 51°16.055 2°48.851 -999 -999 -999 -999
2007-09-11 08:14:05 51°16.054 2°48.836 -999 -999 -999 -999
2007-09-11 08:14:10 51°16.05 2°48.821 -999 -999 -999 -999
2007-09-11 08:14:15 51°16.048 2°48.807 -999 -999 -999 -999
2007-09-11 08:14:20 51°16.045 2°48.793 -999 -999 -999 -999
2007-09-11 08:14:25 51°16.042 2°48.779 -999 -999 -999 -999
2007-09-11 08:14:30 51°16.04 2°48.765 -999 -999 -999 -999
2007-09-11 08:14:35 51°16.036 2°48.752 -999 -999 -999 -999
2007-09-11 08:14:40 51°16.032 2°48.74 -999 -999 -999 -999
2007-09-11 08:14:45 51°16.03 2°48.728 -999 -999 -999 -999
2007-09-11 08:14:51 51°16.025 2°48.713 -999 -999 -999 -999
2007-09-11 08:14:55 51°16.023 2°48.703 -999 -999 -999 -999
2007-09-11 08:15:00 51°16.02 2°48.691 -999 -999 -999 -999
2007-09-11 08:15:05 51°16.017 2°48.68 -999 -999 -999 -999
2007-09-11 08:15:10 51°16.013 2°48.669 -999 -999 -999 -999
2007-09-11 08:15:16 51°16.01 2°48.657 -999 -999 -999 -999
2007-09-11 08:15:20 51°16.008 2°48.65 -999 -999 -999 -999
2007-09-11 08:15:25 51°16.005 2°48.641 -999 -999 -999 -999
2007-09-11 08:15:30 51°16.002 2°48.631 -999 -999 -999 -999
2007-09-11 08:15:35 51°15.999 2°48.623 -999 -999 -999 -999
2007-09-11 08:15:40 51°15.997 2°48.615 -999 -999 -999 -999
2007-09-11 08:15:45 51°15.994 2°48.607 -999 -999 -999 -999
2007-09-11 08:15:50 51°15.992 2°48.599 -999 -999 -999 -999
2007-09-11 08:15:55 51°15.989 2°48.592 -999 -999 -999 -999
2007-09-11 08:16:00 51°15.987 2°48.585 -999 -999 -999 -999
2007-09-11 08:16:05 51°15.985 2°48.578 -999 -999 -999 -999
2007-09-11 08:16:10 51°15.982 2°48.572 -999 -999 -999 -999
2007-09-11 08:16:15 51°15.98 2°48.566 -999 -999 -999 -999
2007-09-11 08:16:20 51°15.978 2°48.56 -999 -999 -999 -999
2007-09-11 08:16:25 51°15.975 2°48.554 -999 -999 -999 -999
2007-09-11 08:16:30 51°15.974 2°48.548 -999 -999 -999 -999
2007-09-11 08:16:35 51°15.97 2°48.543 -999 -999 -999 -999
2007-09-11 08:16:40 51°15.969 2°48.538 -999 -999 -999 -999
2007-09-11 08:16:45 51°15.965 2°48.533 -999 -999 -999 -999
2007-09-11 08:16:50 51°15.964 2°48.528 -999 -999 -999 -999
2007-09-11 08:16:55 51°15.96 2°48.523 -999 -999 -999 -999
2007-09-11 08:17:00 51°15.959 2°48.518 -999 -999 -999 -999
2007-09-11 08:17:05 51°15.956 2°48.513 -999 -999 -999 -999
2007-09-11 08:17:10 51°15.954 2°48.509 -999 -999 -999 -999
2007-09-11 08:17:15 51°15.952 2°48.504 -999 -999 -999 -999
2007-09-11 08:17:20 51°15.95 2°48.5 -999 -999 -999 -999
2007-09-11 08:17:25 51°15.948 2°48.496 -999 -999 -999 -999
2007-09-11 08:17:30 51°15.945 2°48.492 -999 -999 -999 -999
2007-09-11 08:17:35 51°15.943 2°48.488 -999 -999 -999 -999
2007-09-11 08:17:40 51°15.941 2°48.484 -999 -999 -999 -999
2007-09-11 08:17:45 51°15.939 2°48.48 -999 -999 -999 -999
2007-09-11 08:17:50 51°15.936 2°48.477 -999 -999 -999 -999
2007-09-11 08:17:55 51°15.934 2°48.473 -999 -999 -999 -999
2007-09-11 08:18:00 51°15.932 2°48.469 -999 -999 -999 -999
2007-09-11 08:18:05 51°15.927 2°48.468 -999 -999 -999 -999
2007-09-11 08:18:10 51°15.928 2°48.464 -999 -999 -999 -999
2007-09-11 08:18:15 51°15.924 2°48.461 -999 -999 -999 -999
2007-09-11 08:18:20 51°15.922 2°48.458 -999 -999 -999 -999
2007-09-11 08:18:25 51°15.92 2°48.454 -999 -999 -999 -999
2007-09-11 08:18:30 51°15.917 2°48.452 -999 -999 -999 -999
2007-09-11 08:18:35 51°15.915 2°48.449 -999 -999 -999 -999
2007-09-11 08:18:40 51°15.913 2°48.446 -999 -999 -999 -999
2007-09-11 08:18:45 51°15.911 2°48.443 -999 -999 -999 -999
2007-09-11 08:18:50 51°15.909 2°48.44 -999 -999 -999 -999
2007-09-11 08:18:55 51°15.906 2°48.438 -999 -999 -999 -999
2007-09-11 08:19:00 51°15.904 2°48.435 -999 -999 -999 -999
2007-09-11 08:19:05 51°15.902 2°48.433 -999 -999 -999 -999
2007-09-11 08:19:10 51°15.9 2°48.43 -999 -999 -999 -999
2007-09-11 08:19:15 51°15.898 2°48.428 -999 -999 -999 -999
2007-09-11 08:19:20 51°15.895 2°48.426 -999 -999 -999 -999
2007-09-11 08:19:25 51°15.894 2°48.423 -999 -999 -999 -999
2007-09-11 08:19:30 51°15.892 2°48.42 -999 -999 -999 -999
2007-09-11 08:19:35 51°15.889 2°48.418 -999 -999 -999 -999
2007-09-11 08:19:40 51°15.888 2°48.415 -999 -999 -999 -999
2007-09-11 08:19:45 51°15.885 2°48.413 -999 -999 -999 -999
2007-09-11 08:19:51 51°15.882 2°48.41 -999 -999 -999 -999
2007-09-11 08:19:55 51°15.879 2°48.409 -999 -999 -999 -999
2007-09-11 08:20:00 51°15.879 2°48.406 -999 -999 -999 -999
2007-09-11 08:20:05 51°15.875 2°48.404 -999 -999 -999 -999
2007-09-11 08:20:10 51°15.873 2°48.402 -999 -999 -999 -999
2007-09-11 08:20:16 51°15.87 2°48.4 -999 -999 -999 -999
2007-09-11 08:20:20 51°15.869 2°48.398 -999 -999 -999 -999
2007-09-11 08:20:25 51°15.865 2°48.398 -999 -999 -999 -999
2007-09-11 08:20:30 51°15.864 2°48.395 -999 -999 -999 -999
2007-09-11 08:20:35 51°15.861 2°48.394 -999 -999 -999 -999
2007-09-11 08:20:40 51°15.86 2°48.391 -999 -999 -999 -999
2007-09-11 08:20:45 51°15.856 2°48.391 -999 -999 -999 -999
2007-09-11 08:20:50 51°15.855 2°48.388 -999 -999 -999 -999
2007-09-11 08:20:55 51°15.852 2°48.387 -999 -999 -999 -999
2007-09-11 08:21:00 51°15.85 2°48.385 -999 -999 -999 -999
2007-09-11 08:21:05 51°15.849 2°48.383 -999 -999 -999 -999
2007-09-11 08:21:10 51°15.846 2°48.382 -999 -999 -999 -999
2007-09-11 08:21:15 51°15.844 2°48.38 -999 -999 -999 -999
2007-09-11 08:21:20 51°15.842 2°48.379 -999 -999 -999 -999
2007-09-11 08:21:25 51°15.84 2°48.377 -999 -999 -999 -999
2007-09-11 08:21:30 51°15.838 2°48.375 -999 -999 -999 -999
2007-09-11 08:21:35 51°15.836 2°48.374 -999 -999 -999 -999
2007-09-11 08:21:40 51°15.834 2°48.372 -999 -999 -999 -999
2007-09-11 08:21:45 51°15.831 2°48.371 -999 -999 -999 -999
2007-09-11 08:21:50 51°15.83 2°48.368 -999 -999 -999 -999
2007-09-11 08:21:55 51°15.826 2°48.366 -999 -999 -999 -999
2007-09-11 08:22:00 51°15.824 2°48.365 -999 -999 -999 -999
2007-09-11 08:22:05 51°15.822 2°48.36 -999 -999 -999 -999
2007-09-11 08:22:10 51°15.819 2°48.357 -999 -999 -999 -999
2007-09-11 08:22:15 51°15.816 2°48.353 -999 -999 -999 -999
2007-09-11 08:22:20 51°15.813 2°48.348 -999 -999 -999 -999
2007-09-11 08:22:25 51°15.81 2°48.343 -999 -999 -999 -999
2007-09-11 08:22:30 51°15.808 2°48.338 -999 -999 -999 -999
2007-09-11 08:22:36 51°15.805 2°48.331 -999 -999 -999 -999
2007-09-11 08:22:40 51°15.802 2°48.326 -999 -999 -999 -999
2007-09-11 08:22:45 51°15.8 2°48.32 -999 -999 -999 -999
2007-09-11 08:22:50 51°15.798 2°48.313 -999 -999 -999 -999
2007-09-11 08:22:55 51°15.795 2°48.306 -999 -999 -999 -999
2007-09-11 08:23:00 51°15.792 2°48.3 -999 -999 -999 -999
2007-09-11 08:23:05 51°15.79 2°48.293 -999 -999 -999 -999
2007-09-11 08:23:10 51°15.789 2°48.286 -999 -999 -999 -999
2007-09-11 08:23:15 51°15.786 2°48.28 -999 -999 -999 -999
2007-09-11 08:23:20 51°15.785 2°48.275 -999 -999 -999 -999
2007-09-11 08:23:25 51°15.783 2°48.269 -999 -999 -999 -999
2007-09-11 08:23:30 51°15.781 2°48.264 -999 -999 -999 -999
2007-09-11 08:23:35 51°15.778 2°48.259 -999 -999 -999 -999
2007-09-11 08:23:40 51°15.777 2°48.253 -999 -999 -999 -999
2007-09-11 08:23:45 51°15.774 2°48.247 -999 -999 -999 -999
2007-09-11 08:23:50 51°15.774 2°48.24 -999 -999 -999 -999
2007-09-11 08:23:55 51°15.771 2°48.234 -999 -999 -999 -999
2007-09-11 08:24:00 51°15.77 2°48.227 -999 -999 -999 -999
2007-09-11 08:24:05 51°15.768 2°48.219 -999 -999 -999 -999
2007-09-11 08:24:10 51°15.767 2°48.212 -999 -999 -999 -999
2007-09-11 08:24:15 51°15.765 2°48.204 -999 -999 -999 -999
2007-09-11 08:24:20 51°15.765 2°48.197 -999 -999 -999 -999
2007-09-11 08:24:25 51°15.763 2°48.189 -999 -999 -999 -999
2007-09-11 08:24:30 51°15.762 2°48.181 -999 -999 -999 -999
2007-09-11 08:24:36 51°15.761 2°48.172 -999 -999 -999 -999
2007-09-11 08:24:40 51°15.761 2°48.165 -999 -999 -999 -999
2007-09-11 08:24:45 51°15.761 2°48.157 -999 -999 -999 -999
2007-09-11 08:24:50 51°15.761 2°48.147 -999 -999 -999 -999
2007-09-11 08:24:55 51°15.761 2°48.138 -999 -999 -999 -999
2007-09-11 08:25:00 51°15.762 2°48.128 -999 -999 -999 -999
2007-09-11 08:25:05 51°15.764 2°48.119 -999 -999 -999 -999
2007-09-11 08:25:10 51°15.764 2°48.109 -999 -999 -999 -999
2007-09-11 08:25:15 51°15.765 2°48.101 -999 -999 -999 -999
2007-09-11 08:25:20 51°15.766 2°48.093 -999 -999 -999 -999
2007-09-11 08:25:25 51°15.767 2°48.086 -999 -999 -999 -999
2007-09-11 08:25:30 51°15.768 2°48.08 -999 -999 -999 -999
2007-09-11 08:25:35 51°15.768 2°48.073 -999 -999 -999 -999
2007-09-11 08:25:40 51°15.769 2°48.066 -999 -999 -999 -999
2007-09-11 08:25:45 51°15.769 2°48.06 -999 -999 -999 -999
2007-09-11 08:25:50 51°15.769 2°48.054 -999 -999 -999 -999
2007-09-11 08:25:55 51°15.769 2°48.048 -999 -999 -999 -999
2007-09-11 08:26:00 51°15.769 2°48.041 -999 -999 -999 -999
2007-09-11 08:26:05 51°15.77 2°48.036 -999 -999 -999 -999
2007-09-11 08:26:10 51°15.77 2°48.029 -999 -999 -999 -999
2007-09-11 08:26:15 51°15.77 2°48.023 -999 -999 -999 -999
2007-09-11 08:26:20 51°15.77 2°48.016 -999 -999 -999 -999
2007-09-11 08:26:25 51°15.771 2°48.01 -999 -999 -999 -999
2007-09-11 08:26:30 51°15.772 2°48.003 -999 -999 -999 -999
2007-09-11 08:26:35 51°15.773 2°47.996 -999 -999 -999 -999
2007-09-11 08:26:40 51°15.773 2°47.988 -999 -999 -999 -999
2007-09-11 08:26:45 51°15.773 2°47.981 -999 -999 -999 -999
2007-09-11 08:26:50 51°15.774 2°47.975 -999 -999 -999 -999
2007-09-11 08:26:55 51°15.775 2°47.967 -999 -999 -999 -999
2007-09-11 08:27:00 51°15.775 2°47.96 -999 -999 -999 -999
2007-09-11 08:27:05 51°15.776 2°47.953 -999 -999 -999 -999
2007-09-11 08:27:10 51°15.777 2°47.945 -999 -999 -999 -999
2007-09-11 08:27:15 51°15.778 2°47.937 -999 -999 -999 -999
2007-09-11 08:27:20 51°15.778 2°47.931 -999 -999 -999 -999
2007-09-11 08:27:25 51°15.779 2°47.923 -999 -999 -999 -999
2007-09-11 08:27:30 51°15.779 2°47.916 -999 -999 -999 -999
2007-09-11 08:27:35 51°15.78 2°47.909 -999 -999 -999 -999
2007-09-11 08:27:40 51°15.781 2°47.902 -999 -999 -999 -999
2007-09-11 08:27:45 51°15.782 2°47.895 -999 -999 -999 -999
2007-09-11 08:27:50 51°15.783 2°47.887 -999 -999 -999 -999
2007-09-11 08:27:55 51°15.784 2°47.879 -999 -999 -999 -999
2007-09-11 08:28:00 51°15.786 2°47.87 -999 -999 -999 -999
2007-09-11 08:28:05 51°15.787 2°47.862 -999 -999 -999 -999
2007-09-11 08:28:10 51°15.788 2°47.853 -999 -999 -999 -999
2007-09-11 08:28:15 51°15.789 2°47.846 -999 -999 -999 -999
2007-09-11 08:28:20 51°15.789 2°47.838 -999 -999 -999 -999
2007-09-11 08:28:25 51°15.79 2°47.831 -999 -999 -999 -999
2007-09-11 08:28:30 51°15.791 2°47.822 -999 -999 -999 -999
2007-09-11 08:28:35 51°15.792 2°47.814 -999 -999 -999 -999
2007-09-11 08:28:40 51°15.793 2°47.806 -999 -999 -999 -999
2007-09-11 08:28:45 51°15.794 2°47.798 -999 -999 -999 -999
2007-09-11 08:28:50 51°15.795 2°47.789 -999 -999 -999 -999
2007-09-11 08:28:55 51°15.797 2°47.78 -999 -999 -999 -999
2007-09-11 08:29:00 51°15.799 2°47.77 -999 -999 -999 -999
2007-09-11 08:29:05 51°15.801 2°47.76 -999 -999 -999 -999
2007-09-11 08:29:10 51°15.802 2°47.75 -999 -999 -999 -999
2007-09-11 08:29:16 51°15.804 2°47.739 -999 -999 -999 -999
2007-09-11 08:29:20 51°15.805 2°47.73 -999 -999 -999 -999
2007-09-11 08:29:25 51°15.807 2°47.721 -999 -999 -999 -999
2007-09-11 08:29:30 51°15.808 2°47.711 -999 -999 -999 -999
2007-09-11 08:29:35 51°15.809 2°47.7 -999 -999 -999 -999
2007-09-11 08:29:40 51°15.81 2°47.69 -999 -999 -999 -999
2007-09-11 08:29:45 51°15.811 2°47.679 -999 -999 -999 -999
2007-09-11 08:29:50 51°15.811 2°47.669 -999 -999 -999 -999
2007-09-11 08:29:55 51°15.813 2°47.659 -999 -999 -999 -999
2007-09-11 08:30:00 51°15.813 2°47.648 -999 -999 -999 -999
2007-09-11 08:30:05 51°15.813 2°47.638 -999 -999 -999 -999
2007-09-11 08:30:10 51°15.814 2°47.628 -999 -999 -999 -999
2007-09-11 08:30:15 51°15.814 2°47.618 -999 -999 -999 -999
2007-09-11 08:30:20 51°15.815 2°47.608 -999 -999 -999 -999
2007-09-11 08:30:25 51°15.814 2°47.597 -999 -999 -999 -999
2007-09-11 08:30:30 51°15.815 2°47.589 -999 -999 -999 -999
2007-09-11 08:30:35 51°15.814 2°47.579 -999 -999 -999 -999
2007-09-11 08:30:40 51°15.814 2°47.571 -999 -999 -999 -999
2007-09-11 08:30:45 51°15.813 2°47.562 -999 -999 -999 -999
2007-09-11 08:30:50 51°15.813 2°47.554 -999 -999 -999 -999
2007-09-11 08:30:56 51°15.812 2°47.544 -999 -999 -999 -999
2007-09-11 08:31:00 51°15.812 2°47.538 -999 -999 -999 -999
2007-09-11 08:31:05 51°15.811 2°47.53 -999 -999 -999 -999
2007-09-11 08:31:10 51°15.811 2°47.522 -999 -999 -999 -999
2007-09-11 08:31:15 51°15.81 2°47.514 -999 -999 -999 -999
2007-09-11 08:31:20 51°15.81 2°47.507 -999 -999 -999 -999
2007-09-11 08:31:25 51°15.809 2°47.499 -999 -999 -999 -999
2007-09-11 08:31:30 51°15.809 2°47.491 -999 -999 -999 -999
2007-09-11 08:31:36 51°15.807 2°47.482 -999 -999 -999 -999
2007-09-11 08:31:40 51°15.807 2°47.475 -999 -999 -999 -999
2007-09-11 08:31:45 51°15.806 2°47.468 -999 -999 -999 -999
2007-09-11 08:31:50 51°15.805 2°47.461 -999 -999 -999 -999
2007-09-11 08:31:55 51°15.804 2°47.453 -999 -999 -999 -999
2007-09-11 08:32:00 51°15.803 2°47.445 -999 -999 -999 -999
2007-09-11 08:32:05 51°15.802 2°47.438 -999 -999 -999 -999
2007-09-11 08:32:10 51°15.801 2°47.431 -999 -999 -999 -999
2007-09-11 08:32:15 51°15.8 2°47.424 -999 -999 -999 -999
2007-09-11 08:32:21 51°15.798 2°47.414 -999 -999 -999 -999
2007-09-11 08:32:25 51°15.799 2°47.409 -999 -999 -999 -999
2007-09-11 08:32:30 51°15.797 2°47.401 -999 -999 -999 -999
2007-09-11 08:32:35 51°15.796 2°47.393 -999 -999 -999 -999
2007-09-11 08:32:40 51°15.795 2°47.385 -999 -999 -999 -999
2007-09-11 08:32:45 51°15.795 2°47.376 -999 -999 -999 -999
2007-09-11 08:32:50 51°15.793 2°47.367 -999 -999 -999 -999
2007-09-11 08:32:55 51°15.793 2°47.358 -999 -999 -999 -999
2007-09-11 08:33:00 51°15.792 2°47.349 -999 -999 -999 -999
2007-09-11 08:33:05 51°15.792 2°47.339 -999 -999 -999 -999
2007-09-11 08:33:10 51°15.791 2°47.329 -999 -999 -999 -999
2007-09-11 08:33:15 51°15.791 2°47.319 -999 -999 -999 -999
2007-09-11 08:33:20 51°15.79 2°47.309 -999 -999 -999 -999
2007-09-11 08:33:25 51°15.79 2°47.299 -999 -999 -999 -999
2007-09-11 08:33:30 51°15.789 2°47.289 -999 -999 -999 -999
2007-09-11 08:33:35 51°15.789 2°47.279 -999 -999 -999 -999
2007-09-11 08:33:40 51°15.789 2°47.27 -999 -999 -999 -999
2007-09-11 08:33:45 51°15.789 2°47.261 -999 -999 -999 -999
2007-09-11 08:33:50 51°15.788 2°47.25 -999 -999 -999 -999
2007-09-11 08:33:55 51°15.787 2°47.24 -999 -999 -999 -999
2007-09-11 08:34:00 51°15.787 2°47.23 -999 -999 -999 -999
2007-09-11 08:34:05 51°15.786 2°47.22 -999 -999 -999 -999
2007-09-11 08:34:10 51°15.786 2°47.211 -999 -999 -999 -999
2007-09-11 08:34:15 51°15.785 2°47.201 -999 -999 -999 -999
2007-09-11 08:34:20 51°15.786 2°47.191 -999 -999 -999 -999
2007-09-11 08:34:25 51°15.784 2°47.181 -999 -999 -999 -999
2007-09-11 08:34:30 51°15.785 2°47.172 -999 -999 -999 -999
2007-09-11 08:34:35 51°15.784 2°47.163 -999 -999 -999 -999
2007-09-11 08:34:41 51°15.783 2°47.151 -999 -999 -999 -999
2007-09-11 08:34:45 51°15.783 2°47.144 -999 -999 -999 -999
2007-09-11 08:34:50 51°15.781 2°47.134 -999 -999 -999 -999
2007-09-11 08:34:55 51°15.781 2°47.125 -999 -999 -999 -999
2007-09-11 08:35:00 51°15.779 2°47.115 -999 -999 -999 -999
2007-09-11 08:35:05 51°15.78 2°47.106 -999 -999 -999 -999
2007-09-11 08:35:10 51°15.778 2°47.097 -999 -999 -999 -999
2007-09-11 08:35:15 51°15.777 2°47.088 -999 -999 -999 -999
2007-09-11 08:35:20 51°15.775 2°47.079 -999 -999 -999 -999
2007-09-11 08:35:25 51°15.774 2°47.071 -999 -999 -999 -999
2007-09-11 08:35:31 51°15.773 2°47.061 -999 -999 -999 -999
2007-09-11 08:35:36 51°15.771 2°47.052 -999 -999 -999 -999
2007-09-11 08:35:40 51°15.77 2°47.045 -999 -999 -999 -999
2007-09-11 08:35:45 51°15.769 2°47.037 -999 -999 -999 -999
2007-09-11 08:35:50 51°15.768 2°47.029 -999 -999 -999 -999
2007-09-11 08:35:56 51°15.767 2°47.018 -999 -999 -999 -999
2007-09-11 08:36:00 51°15.766 2°47.011 -999 -999 -999 -999
2007-09-11 08:36:05 51°15.765 2°47.002 -999 -999 -999 -999
2007-09-11 08:36:10 51°15.764 2°46.992 -999 -999 -999 -999
2007-09-11 08:36:15 51°15.763 2°46.982 -999 -999 -999 -999
2007-09-11 08:36:20 51°15.762 2°46.972 -999 -999 -999 -999
2007-09-11 08:36:25 51°15.761 2°46.962 -999 -999 -999 -999
2007-09-11 08:36:30 51°15.76 2°46.953 -999 -999 -999 -999
2007-09-11 08:36:35 51°15.759 2°46.943 -999 -999 -999 -999
2007-09-11 08:36:40 51°15.758 2°46.934 -999 -999 -999 -999
2007-09-11 08:36:45 51°15.757 2°46.924 -999 -999 -999 -999
2007-09-11 08:36:50 51°15.756 2°46.915 -999 -999 -999 -999
2007-09-11 08:36:55 51°15.755 2°46.907 -999 -999 -999 -999
2007-09-11 08:37:00 51°15.753 2°46.898 -999 -999 -999 -999
2007-09-11 08:37:05 51°15.752 2°46.889 -999 -999 -999 -999
2007-09-11 08:37:10 51°15.751 2°46.88 -999 -999 -999 -999
2007-09-11 08:37:15 51°15.75 2°46.872 -999 -999 -999 -999
2007-09-11 08:37:20 51°15.749 2°46.863 -999 -999 -999 -999
2007-09-11 08:37:25 51°15.748 2°46.854 -999 -999 -999 -999
2007-09-11 08:37:30 51°15.746 2°46.846 -999 -999 -999 -999
2007-09-11 08:37:35 51°15.744 2°46.838 -999 -999 -999 -999
2007-09-11 08:37:40 51°15.743 2°46.829 -999 -999 -999 -999
2007-09-11 08:37:45 51°15.741 2°46.82 -999 -999 -999 -999
2007-09-11 08:37:51 51°15.74 2°46.81 -999 -999 -999 -999
2007-09-11 08:37:55 51°15.738 2°46.803 -999 -999 -999 -999
2007-09-11 08:38:00 51°15.737 2°46.794 -999 -999 -999 -999
2007-09-11 08:38:05 51°15.736 2°46.785 -999 -999 -999 -999
2007-09-11 08:38:10 51°15.734 2°46.776 -999 -999 -999 -999
2007-09-11 08:38:16 51°15.733 2°46.766 -999 -999 -999 -999
2007-09-11 08:38:20 51°15.731 2°46.759 -999 -999 -999 -999
2007-09-11 08:38:25 51°15.729 2°46.75 -999 -999 -999 -999
2007-09-11 08:38:30 51°15.729 2°46.74 -999 -999 -999 -999
2007-09-11 08:38:36 51°15.726 2°46.729 -999 -999 -999 -999
2007-09-11 08:38:40 51°15.725 2°46.722 -999 -999 -999 -999
2007-09-11 08:38:45 51°15.723 2°46.713 -999 -999 -999 -999
2007-09-11 08:38:50 51°15.723 2°46.703 -999 -999 -999 -999
2007-09-11 08:38:55 51°15.721 2°46.694 -999 -999 -999 -999
2007-09-11 08:39:00 51°15.719 2°46.685 -999 -999 -999 -999
2007-09-11 08:39:05 51°15.719 2°46.676 -999 -999 -999 -999
2007-09-11 08:39:10 51°15.716 2°46.667 -999 -999 -999 -999
2007-09-11 08:39:15 51°15.716 2°46.658 -999 -999 -999 -999
2007-09-11 08:39:20 51°15.714 2°46.648 -999 -999 -999 -999
2007-09-11 08:39:25 51°15.714 2°46.638 -999 -999 -999 -999
2007-09-11 08:39:30 51°15.711 2°46.628 -999 -999 -999 -999
2007-09-11 08:39:35 51°15.712 2°46.619 -999 -999 -999 -999
2007-09-11 08:39:40 51°15.71 2°46.608 -999 -999 -999 -999
2007-09-11 08:39:45 51°15.71 2°46.599 -999 -999 -999 -999
2007-09-11 08:39:50 51°15.707 2°46.588 -999 -999 -999 -999
2007-09-11 08:39:55 51°15.707 2°46.578 -999 -999 -999 -999
2007-09-11 08:40:00 51°15.706 2°46.569 -999 -999 -999 -999
2007-09-11 08:40:05 51°15.705 2°46.56 -999 -999 -999 -999
2007-09-11 08:40:10 51°15.703 2°46.551 -999 -999 -999 -999
2007-09-11 08:40:15 51°15.703 2°46.543 -999 -999 -999 -999
2007-09-11 08:40:20 51°15.702 2°46.535 -999 -999 -999 -999
2007-09-11 08:40:25 51°15.7 2°46.526 -999 -999 -999 -999
2007-09-11 08:40:30 51°15.699 2°46.518 -999 -999 -999 -999
2007-09-11 08:40:36 51°15.698 2°46.508 -999 -999 -999 -999
2007-09-11 08:40:40 51°15.698 2°46.501 -999 -999 -999 -999
2007-09-11 08:40:45 51°15.696 2°46.491 -999 -999 -999 -999
2007-09-11 08:40:50 51°15.695 2°46.482 -999 -999 -999 -999
2007-09-11 08:40:56 51°15.694 2°46.471 -999 -999 -999 -999
2007-09-11 08:41:00 51°15.693 2°46.463 -999 -999 -999 -999
2007-09-11 08:41:05 51°15.693 2°46.454 -999 -999 -999 -999
2007-09-11 08:41:10 51°15.691 2°46.444 -999 -999 -999 -999
2007-09-11 08:41:15 51°15.69 2°46.435 -999 -999 -999 -999
2007-09-11 08:41:20 51°15.689 2°46.427 -999 -999 -999 -999
2007-09-11 08:41:25 51°15.687 2°46.418 -999 -999 -999 -999
2007-09-11 08:41:30 51°15.687 2°46.41 -999 -999 -999 -999
2007-09-11 08:41:35 51°15.685 2°46.402 -999 -999 -999 -999
2007-09-11 08:41:40 51°15.684 2°46.394 -999 -999 -999 -999
2007-09-11 08:41:45 51°15.683 2°46.385 -999 -999 -999 -999
2007-09-11 08:41:50 51°15.682 2°46.377 -999 -999 -999 -999
2007-09-11 08:41:55 51°15.68 2°46.369 -999 -999 -999 -999
2007-09-11 08:42:00 51°15.68 2°46.36 -999 -999 -999 -999
2007-09-11 08:42:05 51°15.678 2°46.351 -999 -999 -999 -999
2007-09-11 08:42:10 51°15.678 2°46.342 -999 -999 -999 -999
2007-09-11 08:42:15 51°15.676 2°46.333 -999 -999 -999 -999
2007-09-11 08:42:20 51°15.675 2°46.324 -999 -999 -999 -999
2007-09-11 08:42:25 51°15.673 2°46.316 -999 -999 -999 -999
2007-09-11 08:42:30 51°15.672 2°46.307 -999 -999 -999 -999
2007-09-11 08:42:36 51°15.67 2°46.296 -999 -999 -999 -999
2007-09-11 08:42:40 51°15.669 2°46.288 -999 -999 -999 -999
2007-09-11 08:42:45 51°15.668 2°46.279 -999 -999 -999 -999
2007-09-11 08:42:50 51°15.666 2°46.269 -999 -999 -999 -999
2007-09-11 08:42:55 51°15.664 2°46.261 -999 -999 -999 -999
2007-09-11 08:43:00 51°15.662 2°46.251 -999 -999 -999 -999
2007-09-11 08:43:05 51°15.66 2°46.242 -999 -999 -999 -999
2007-09-11 08:43:10 51°15.658 2°46.232 -999 -999 -999 -999
2007-09-11 08:43:15 51°15.655 2°46.223 -999 -999 -999 -999
2007-09-11 08:43:20 51°15.653 2°46.214 -999 -999 -999 -999
2007-09-11 08:43:25 51°15.651 2°46.205 -999 -999 -999 -999
2007-09-11 08:43:30 51°15.648 2°46.196 -999 -999 -999 -999
2007-09-11 08:43:35 51°15.646 2°46.187 -999 -999 -999 -999
2007-09-11 08:43:40 51°15.643 2°46.178 -999 -999 -999 -999
2007-09-11 08:43:45 51°15.641 2°46.168 -999 -999 -999 -999
2007-09-11 08:43:50 51°15.638 2°46.159 -999 -999 -999 -999
2007-09-11 08:43:55 51°15.635 2°46.15 -999 -999 -999 -999
2007-09-11 08:44:00 51°15.633 2°46.14 -999 -999 -999 -999
2007-09-11 08:44:05 51°15.63 2°46.132 -999 -999 -999 -999
2007-09-11 08:44:10 51°15.628 2°46.123 -999 -999 -999 -999
2007-09-11 08:44:15 51°15.625 2°46.114 -999 -999 -999 -999
2007-09-11 08:44:20 51°15.622 2°46.106 -999 -999 -999 -999
2007-09-11 08:44:25 51°15.619 2°46.098 -999 -999 -999 -999
2007-09-11 08:44:30 51°15.616 2°46.089 -999 -999 -999 -999
2007-09-11 08:44:35 51°15.614 2°46.081 -999 -999 -999 -999
2007-09-11 08:44:40 51°15.61 2°46.073 -999 -999 -999 -999
2007-09-11 08:44:45 51°15.608 2°46.064 -999 -999 -999 -999
2007-09-11 08:44:51 51°15.604 2°46.054 -999 -999 -999 -999
2007-09-11 08:44:55 51°15.602 2°46.047 -999 -999 -999 -999
2007-09-11 08:45:00 51°15.599 2°46.039 -999 -999 -999 -999
2007-09-11 08:45:05 51°15.596 2°46.03 -999 -999 -999 -999
2007-09-11 08:45:10 51°15.594 2°46.022 -999 -999 -999 -999
2007-09-11 08:45:15 51°15.591 2°46.013 -999 -999 -999 -999
2007-09-11 08:45:20 51°15.588 2°46.005 -999 -999 -999 -999
2007-09-11 08:45:25 51°15.584 2°45.996 -999 -999 -999 -999
2007-09-11 08:45:30 51°15.582 2°45.987 -999 -999 -999 -999
2007-09-11 08:45:35 51°15.579 2°45.979 -999 -999 -999 -999
2007-09-11 08:45:41 51°15.576 2°45.968 -999 -999 -999 -999
2007-09-11 08:45:45 51°15.574 2°45.961 -999 -999 -999 -999
2007-09-11 08:45:50 51°15.571 2°45.952 -999 -999 -999 -999
2007-09-11 08:45:55 51°15.569 2°45.944 -999 -999 -999 -999
2007-09-11 08:46:00 51°15.566 2°45.934 -999 -999 -999 -999
2007-09-11 08:46:05 51°15.563 2°45.926 -999 -999 -999 -999
2007-09-11 08:46:10 51°15.561 2°45.917 -999 -999 -999 -999
2007-09-11 08:46:15 51°15.558 2°45.908 -999 -999 -999 -999
2007-09-11 08:46:20 51°15.555 2°45.899 -999 -999 -999 -999
2007-09-11 08:46:25 51°15.553 2°45.89 -999 -999 -999 -999
2007-09-11 08:46:30 51°15.549 2°45.882 -999 -999 -999 -999
2007-09-11 08:46:35 51°15.547 2°45.873 -999 -999 -999 -999
2007-09-11 08:46:40 51°15.544 2°45.864 -999 -999 -999 -999
2007-09-11 08:46:45 51°15.541 2°45.856 -999 -999 -999 -999
2007-09-11 08:46:50 51°15.537 2°45.847 -999 -999 -999 -999
2007-09-11 08:46:55 51°15.535 2°45.838 -999 -999 -999 -999
2007-09-11 08:47:00 51°15.531 2°45.829 -999 -999 -999 -999
2007-09-11 08:47:05 51°15.528 2°45.82 -999 -999 -999 -999
2007-09-11 08:47:11 51°15.525 2°45.81 -999 -999 -999 -999
2007-09-11 08:47:15 51°15.522 2°45.803 -999 -999 -999 -999
2007-09-11 08:47:20 51°15.519 2°45.795 -999 -999 -999 -999
2007-09-11 08:47:25 51°15.516 2°45.786 -999 -999 -999 -999
2007-09-11 08:47:30 51°15.513 2°45.777 -999 -999 -999 -999
2007-09-11 08:47:36 51°15.509 2°45.767 -999 -999 -999 -999
2007-09-11 08:47:40 51°15.507 2°45.76 -999 -999 -999 -999
2007-09-11 08:47:45 51°15.504 2°45.752 -999 -999 -999 -999
2007-09-11 08:47:50 51°15.501 2°45.743 -999 -999 -999 -999
2007-09-11 08:47:55 51°15.498 2°45.735 -999 -999 -999 -999
2007-09-11 08:48:00 51°15.495 2°45.727 -999 -999 -999 -999
2007-09-11 08:48:05 51°15.492 2°45.719 -999 -999 -999 -999
2007-09-11 08:48:10 51°15.489 2°45.71 -999 -999 -999 -999
2007-09-11 08:48:15 51°15.486 2°45.702 -999 -999 -999 -999
2007-09-11 08:48:20 51°15.483 2°45.694 -999 -999 -999 -999
2007-09-11 08:48:25 51°15.479 2°45.686 -999 -999 -999 -999
2007-09-11 08:48:30 51°15.476 2°45.677 -999 -999 -999 -999
2007-09-11 08:48:35 51°15.472 2°45.669 -999 -999 -999 -999
2007-09-11 08:48:40 51°15.47 2°45.66 -999 -999 -999 -999
2007-09-11 08:48:45 51°15.466 2°45.651 -999 -999 -999 -999
2007-09-11 08:48:51 51°15.462 2°45.641 -999 -999 -999 -999
2007-09-11 08:48:55 51°15.459 2°45.635 -999 -999 -999 -999
2007-09-11 08:49:00 51°15.456 2°45.626 -999 -999 -999 -999
2007-09-11 08:49:05 51°15.453 2°45.617 -999 -999 -999 -999
2007-09-11 08:49:10 51°15.449 2°45.609 -999 -999 -999 -999
2007-09-11 08:49:16 51°15.444 2°45.599 -999 -999 -999 -999
2007-09-11 08:49:20 51°15.443 2°45.591 -999 -999 -999 -999
2007-09-11 08:49:25 51°15.439 2°45.583 -999 -999 -999 -999
2007-09-11 08:49:31 51°15.434 2°45.573 -999 -999 -999 -999
2007-09-11 08:49:36 51°15.432 2°45.564 -999 -999 -999 -999
2007-09-11 08:49:40 51°15.428 2°45.558 -999 -999 -999 -999
2007-09-11 08:49:45 51°15.425 2°45.549 -999 -999 -999 -999
2007-09-11 08:49:50 51°15.423 2°45.54 -999 -999 -999 -999
2007-09-11 08:49:55 51°15.42 2°45.532 -999 -999 -999 -999
2007-09-11 08:50:00 51°15.417 2°45.523 -999 -999 -999 -999
2007-09-11 08:50:05 51°15.413 2°45.515 -999 -999 -999 -999
2007-09-11 08:50:10 51°15.411 2°45.506 -999 -999 -999 -999
2007-09-11 08:50:15 51°15.407 2°45.498 -999 -999 -999 -999
2007-09-11 08:50:20 51°15.405 2°45.49 -999 -999 -999 -999
2007-09-11 08:50:25 51°15.402 2°45.481 -999 -999 -999 -999
2007-09-11 08:50:30 51°15.399 2°45.473 -999 -999 -999 -999
2007-09-11 08:50:35 51°15.396 2°45.464 -999 -999 -999 -999
2007-09-11 08:50:40 51°15.392 2°45.456 -999 -999 -999 -999
2007-09-11 08:50:45 51°15.39 2°45.447 -999 -999 -999 -999
2007-09-11 08:50:50 51°15.387 2°45.438 -999 -999 -999 -999
2007-09-11 08:50:55 51°15.384 2°45.429 -999 -999 -999 -999
2007-09-11 08:51:00 51°15.382 2°45.419 -999 -999 -999 -999
2007-09-11 08:51:05 51°15.378 2°45.411 -999 -999 -999 -999
2007-09-11 08:51:11 51°15.375 2°45.4 -999 -999 -999 -999
2007-09-11 08:51:15 51°15.373 2°45.393 -999 -999 -999 -999
2007-09-11 08:51:20 51°15.369 2°45.385 -999 -999 -999 -999
2007-09-11 08:51:25 51°15.367 2°45.375 -999 -999 -999 -999
2007-09-11 08:51:30 51°15.363 2°45.367 -999 -999 -999 -999
2007-09-11 08:51:36 51°15.359 2°45.357 -999 -999 -999 -999
2007-09-11 08:51:40 51°15.357 2°45.35 -999 -999 -999 -999
2007-09-11 08:51:45 51°15.353 2°45.341 -999 -999 -999 -999
2007-09-11 08:51:50 51°15.349 2°45.333 -999 -999 -999 -999
2007-09-11 08:51:56 51°15.346 2°45.323 -999 -999 -999 -999
2007-09-11 08:52:00 51°15.343 2°45.317 -999 -999 -999 -999
2007-09-11 08:52:05 51°15.341 2°45.308 -999 -999 -999 -999
2007-09-11 08:52:10 51°15.337 2°45.301 -999 -999 -999 -999
2007-09-11 08:52:16 51°15.334 2°45.291 -999 -999 -999 -999
2007-09-11 08:52:20 51°15.331 2°45.285 -999 -999 -999 -999
2007-09-11 08:52:25 51°15.329 2°45.277 -999 -999 -999 -999
2007-09-11 08:52:30 51°15.325 2°45.269 -999 -999 -999 -999
2007-09-11 08:52:35 51°15.323 2°45.261 -999 -999 -999 -999
2007-09-11 08:52:40 51°15.319 2°45.254 -999 -999 -999 -999
2007-09-11 08:52:45 51°15.316 2°45.246 -999 -999 -999 -999
2007-09-11 08:52:50 51°15.312 2°45.239 -999 -999 -999 -999
2007-09-11 08:52:55 51°15.31 2°45.231 -999 -999 -999 -999
2007-09-11 08:53:01 51°15.306 2°45.222 -999 -999 -999 -999
2007-09-11 08:53:05 51°15.304 2°45.215 -999 -999 -999 -999
2007-09-11 08:53:10 51°15.3 2°45.207 -999 -999 -999 -999
2007-09-11 08:53:15 51°15.298 2°45.199 -999 -999 -999 -999
2007-09-11 08:53:20 51°15.295 2°45.19 -999 -999 -999 -999
2007-09-11 08:53:25 51°15.292 2°45.182 -999 -999 -999 -999
2007-09-11 08:53:30 51°15.289 2°45.173 -999 -999 -999 -999
2007-09-11 08:53:35 51°15.287 2°45.164 -999 -999 -999 -999
2007-09-11 08:53:40 51°15.282 2°45.157 -999 -999 -999 -999
2007-09-11 08:53:45 51°15.28 2°45.147 -999 -999 -999 -999
2007-09-11 08:53:51 51°15.276 2°45.137 -999 -999 -999 -999
2007-09-11 08:53:56 51°15.273 2°45.128 -999 -999 -999 -999
2007-09-11 08:54:00 51°15.271 2°45.121 -999 -999 -999 -999
2007-09-11 08:54:05 51°15.268 2°45.112 -999 -999 -999 -999
2007-09-11 08:54:11 51°15.264 2°45.102 -999 -999 -999 -999
2007-09-11 08:54:16 51°15.261 2°45.093 -999 -999 -999 -999
2007-09-11 08:54:20 51°15.259 2°45.086 -999 -999 -999 -999
2007-09-11 08:54:25 51°15.256 2°45.077 -999 -999 -999 -999
2007-09-11 08:54:30 51°15.253 2°45.068 -999 -999 -999 -999
2007-09-11 08:54:36 51°15.249 2°45.057 -999 -999 -999 -999
2007-09-11 08:54:40 51°15.246 2°45.05 -999 -999 -999 -999
2007-09-11 08:54:45 51°15.244 2°45.041 -999 -999 -999 -999
2007-09-11 08:54:50 51°15.24 2°45.032 -999 -999 -999 -999
2007-09-11 08:54:55 51°15.237 2°45.023 -999 -999 -999 -999
2007-09-11 08:55:00 51°15.234 2°45.014 -999 -999 -999 -999
2007-09-11 08:55:05 51°15.231 2°45.005 -999 -999 -999 -999
2007-09-11 08:55:10 51°15.227 2°44.996 -999 -999 -999 -999
2007-09-11 08:55:15 51°15.224 2°44.987 -999 -999 -999 -999
2007-09-11 08:55:20 51°15.221 2°44.978 -999 -999 -999 -999
2007-09-11 08:55:25 51°15.218 2°44.969 -999 -999 -999 -999
2007-09-11 08:55:30 51°15.215 2°44.961 -999 -999 -999 -999
2007-09-11 08:55:35 51°15.211 2°44.952 -999 -999 -999 -999
2007-09-11 08:55:40 51°15.208 2°44.944 -999 -999 -999 -999
2007-09-11 08:55:45 51°15.205 2°44.935 -999 -999 -999 -999
2007-09-11 08:55:50 51°15.201 2°44.927 -999 -999 -999 -999
2007-09-11 08:55:55 51°15.198 2°44.92 -999 -999 -999 -999
2007-09-11 08:56:00 51°15.195 2°44.911 -999 -999 -999 -999
2007-09-11 08:56:05 51°15.192 2°44.904 -999 -999 -999 -999
2007-09-11 08:56:10 51°15.189 2°44.896 -999 -999 -999 -999
2007-09-11 08:56:15 51°15.186 2°44.888 -999 -999 -999 -999
2007-09-11 08:56:20 51°15.183 2°44.88 -999 -999 -999 -999
2007-09-11 08:56:25 51°15.179 2°44.873 -999 -999 -999 -999
2007-09-11 08:56:30 51°15.177 2°44.865 -999 -999 -999 -999
2007-09-11 08:56:35 51°15.174 2°44.857 -999 -999 -999 -999
2007-09-11 08:56:40 51°15.171 2°44.849 -999 -999 -999 -999
2007-09-11 08:56:45 51°15.167 2°44.841 -999 -999 -999 -999
2007-09-11 08:56:50 51°15.164 2°44.832 -999 -999 -999 -999
2007-09-11 08:56:56 51°15.159 2°44.822 -999 -999 -999 -999
2007-09-11 08:57:00 51°15.157 2°44.815 -999 -999 -999 -999
2007-09-11 08:57:05 51°15.153 2°44.806 -999 -999 -999 -999
2007-09-11 08:57:10 51°15.15 2°44.796 -999 -999 -999 -999
2007-09-11 08:57:15 51°15.146 2°44.787 -999 -999 -999 -999
2007-09-11 08:57:20 51°15.142 2°44.778 -999 -999 -999 -999
2007-09-11 08:57:25 51°15.139 2°44.768 -999 -999 -999 -999
2007-09-11 08:57:30 51°15.134 2°44.759 -999 -999 -999 -999
2007-09-11 08:57:35 51°15.131 2°44.748 -999 -999 -999 -999
2007-09-11 08:57:40 51°15.126 2°44.739 -999 -999 -999 -999
2007-09-11 08:57:45 51°15.123 2°44.728 -999 -999 -999 -999
2007-09-11 08:57:50 51°15.118 2°44.72 -999 -999 -999 -999
2007-09-11 08:57:55 51°15.115 2°44.709 -999 -999 -999 -999
2007-09-11 08:58:00 51°15.111 2°44.7 -999 -999 -999 -999
2007-09-11 08:58:05 51°15.107 2°44.691 -999 -999 -999 -999
2007-09-11 08:58:11 51°15.104 2°44.68 -999 -999 -999 -999
2007-09-11 08:58:15 51°15.1 2°44.673 -999 -999 -999 -999
2007-09-11 08:58:20 51°15.098 2°44.665 -999 -999 -999 -999
2007-09-11 08:58:25 51°15.094 2°44.657 -999 -999 -999 -999
2007-09-11 08:58:30 51°15.091 2°44.649 -999 -999 -999 -999
2007-09-11 08:58:36 51°15.087 2°44.64 -999 -999 -999 -999
2007-09-11 08:58:40 51°15.085 2°44.633 -999 -999 -999 -999
2007-09-11 08:58:45 51°15.081 2°44.625 -999 -999 -999 -999
2007-09-11 08:58:50 51°15.078 2°44.617 -999 -999 -999 -999
2007-09-11 08:58:56 51°15.075 2°44.607 -999 -999 -999 -999
2007-09-11 08:59:01 51°15.072 2°44.599 -999 -999 -999 -999
2007-09-11 08:59:05 51°15.069 2°44.593 -999 -999 -999 -999
2007-09-11 08:59:10 51°15.066 2°44.584 -999 -999 -999 -999
2007-09-11 08:59:15 51°15.063 2°44.576 -999 -999 -999 -999
2007-09-11 08:59:20 51°15.059 2°44.567 -999 -999 -999 -999
2007-09-11 08:59:25 51°15.056 2°44.558 -999 -999 -999 -999
2007-09-11 08:59:30 51°15.053 2°44.55 -999 -999 -999 -999
2007-09-11 08:59:35 51°15.05 2°44.541 -999 -999 -999 -999
2007-09-11 08:59:40 51°15.046 2°44.533 -999 -999 -999 -999
2007-09-11 08:59:45 51°15.044 2°44.524 -999 -999 -999 -999
2007-09-11 08:59:50 51°15.04 2°44.516 -999 -999 -999 -999
2007-09-11 08:59:55 51°15.037 2°44.506 -999 -999 -999 -999
2007-09-11 09:00:00 51°15.033 2°44.498 -999 -999 -999 -999
2007-09-11 09:00:05 51°15.031 2°44.488 -999 -999 -999 -999
2007-09-11 09:00:10 51°15.027 2°44.479 -999 -999 -999 -999
2007-09-11 09:00:15 51°15.024 2°44.469 -999 -999 -999 -999
2007-09-11 09:00:20 51°15.02 2°44.46 -999 -999 -999 -999
2007-09-11 09:00:25 51°15.017 2°44.45 -999 -999 -999 -999
2007-09-11 09:00:31 51°15.012 2°44.439 -999 -999 -999 -999
2007-09-11 09:00:35 51°15.009 2°44.431 -999 -999 -999 -999
2007-09-11 09:00:40 51°15.006 2°44.421 -999 -999 -999 -999
2007-09-11 09:00:45 51°15.002 2°44.413 -999 -999 -999 -999
2007-09-11 09:00:50 51°14.998 2°44.403 -999 -999 -999 -999
2007-09-11 09:00:55 51°14.995 2°44.395 -999 -999 -999 -999
2007-09-11 09:01:00 51°14.991 2°44.385 -999 -999 -999 -999
2007-09-11 09:01:05 51°14.987 2°44.377 -999 -999 -999 -999
2007-09-11 09:01:10 51°14.984 2°44.368 -999 -999 -999 -999
2007-09-11 09:01:15 51°14.981 2°44.36 -999 -999 -999 -999
2007-09-11 09:01:20 51°14.978 2°44.351 -999 -999 -999 -999
2007-09-11 09:01:25 51°14.974 2°44.342 -999 -999 -999 -999
2007-09-11 09:01:30 51°14.971 2°44.334 -999 -999 -999 -999
2007-09-11 09:01:35 51°14.968 2°44.325 -999 -999 -999 -999
2007-09-11 09:01:40 51°14.964 2°44.318 -999 -999 -999 -999
2007-09-11 09:01:45 51°14.961 2°44.309 -999 -999 -999 -999
2007-09-11 09:01:50 51°14.958 2°44.301 -999 -999 -999 -999
2007-09-11 09:01:55 51°14.955 2°44.293 -999 -999 -999 -999
2007-09-11 09:02:00 51°14.951 2°44.284 -999 -999 -999 -999
2007-09-11 09:02:05 51°14.948 2°44.276 -999 -999 -999 -999
2007-09-11 09:02:11 51°14.944 2°44.267 -999 -999 -999 -999
2007-09-11 09:02:15 51°14.942 2°44.26 -999 -999 -999 -999
2007-09-11 09:02:20 51°14.94 2°44.252 -999 -999 -999 -999
2007-09-11 09:02:25 51°14.937 2°44.245 -999 -999 -999 -999
2007-09-11 09:02:30 51°14.934 2°44.237 -999 -999 -999 -999
2007-09-11 09:02:36 51°14.931 2°44.229 -999 -999 -999 -999
2007-09-11 09:02:40 51°14.93 2°44.223 -999 -999 -999 -999
2007-09-11 09:02:45 51°14.927 2°44.216 -999 -999 -999 -999
2007-09-11 09:02:51 51°14.925 2°44.208 -999 -999 -999 -999
2007-09-11 09:02:55 51°14.922 2°44.203 -999 -999 -999 -999
2007-09-11 09:03:00 51°14.921 2°44.197 -999 -999 -999 -999
2007-09-11 09:03:05 51°14.919 2°44.191 -999 -999 -999 -999
2007-09-11 09:03:10 51°14.917 2°44.184 -999 -999 -999 -999
2007-09-11 09:03:16 51°14.914 2°44.177 -999 -999 -999 -999
2007-09-11 09:03:20 51°14.912 2°44.172 -999 -999 -999 -999
2007-09-11 09:03:25 51°14.91 2°44.166 -999 -999 -999 -999
2007-09-11 09:03:30 51°14.909 2°44.16 -999 -999 -999 -999
2007-09-11 09:03:35 51°14.906 2°44.153 -999 -999 -999 -999
2007-09-11 09:03:40 51°14.905 2°44.147 -999 -999 -999 -999
2007-09-11 09:03:45 51°14.903 2°44.141 -999 -999 -999 -999
2007-09-11 09:03:50 51°14.901 2°44.134 -999 -999 -999 -999
2007-09-11 09:03:55 51°14.9 2°44.128 -999 -999 -999 -999
2007-09-11 09:04:00 51°14.898 2°44.122 -999 -999 -999 -999
2007-09-11 09:04:05 51°14.896 2°44.115 -999 -999 -999 -999
2007-09-11 09:04:10 51°14.895 2°44.109 -999 -999 -999 -999
2007-09-11 09:04:15 51°14.893 2°44.102 -999 -999 -999 -999
2007-09-11 09:04:20 51°14.892 2°44.096 -999 -999 -999 -999
2007-09-11 09:04:25 51°14.891 2°44.089 -999 -999 -999 -999
2007-09-11 09:04:30 51°14.89 2°44.084 -999 -999 -999 -999
2007-09-11 09:04:35 51°14.888 2°44.078 -999 -999 -999 -999
2007-09-11 09:04:40 51°14.886 2°44.072 -999 -999 -999 -999
2007-09-11 09:04:45 51°14.885 2°44.065 -999 -999 -999 -999
2007-09-11 09:04:50 51°14.884 2°44.059 -999 -999 -999 -999
2007-09-11 09:04:55 51°14.883 2°44.053 -999 -999 -999 -999
2007-09-11 09:05:00 51°14.882 2°44.047 -999 -999 -999 -999
2007-09-11 09:05:05 51°14.88 2°44.041 -999 -999 -999 -999
2007-09-11 09:05:10 51°14.879 2°44.036 -999 -999 -999 -999
2007-09-11 09:05:15 51°14.877 2°44.03 -999 -999 -999 -999
2007-09-11 09:05:20 51°14.876 2°44.023 -999 -999 -999 -999
2007-09-11 09:05:25 51°14.875 2°44.018 -999 -999 -999 -999
2007-09-11 09:05:31 51°14.873 2°44.011 -999 -999 -999 -999
2007-09-11 09:05:36 51°14.872 2°44.006 -999 -999 -999 -999
2007-09-11 09:05:40 51°14.871 2°44.002 -999 -999 -999 -999
2007-09-11 09:05:45 51°14.87 2°43.997 -999 -999 -999 -999
2007-09-11 09:05:50 51°14.869 2°43.992 -999 -999 -999 -999
2007-09-11 09:05:56 51°14.867 2°43.987 -999 -999 -999 -999
2007-09-11 09:06:00 51°14.866 2°43.983 -999 -999 -999 -999
2007-09-11 09:06:05 51°14.865 2°43.979 -999 -999 -999 -999
2007-09-11 09:06:10 51°14.863 2°43.974 -999 -999 -999 -999
2007-09-11 09:06:15 51°14.861 2°43.97 -999 -999 -999 -999
2007-09-11 09:06:21 51°14.859 2°43.966 -999 -999 -999 -999
2007-09-11 09:06:25 51°14.858 2°43.962 -999 -999 -999 -999
2007-09-11 09:06:30 51°14.856 2°43.959 -999 -999 -999 -999
2007-09-11 09:06:35 51°14.855 2°43.955 -999 -999 -999 -999
2007-09-11 09:06:40 51°14.853 2°43.951 -999 -999 -999 -999
2007-09-11 09:06:45 51°14.851 2°43.947 -999 -999 -999 -999
2007-09-11 09:06:50 51°14.85 2°43.944 -999 -999 -999 -999
2007-09-11 09:06:55 51°14.848 2°43.941 -999 -999 -999 -999
2007-09-11 09:07:00 51°14.846 2°43.937 -999 -999 -999 -999
2007-09-11 09:07:05 51°14.844 2°43.933 -999 -999 -999 -999
2007-09-11 09:07:10 51°14.842 2°43.931 -999 -999 -999 -999
2007-09-11 09:07:15 51°14.84 2°43.927 -999 -999 -999 -999
2007-09-11 09:07:20 51°14.839 2°43.924 -999 -999 -999 -999
2007-09-11 09:07:25 51°14.837 2°43.921 -999 -999 -999 -999
2007-09-11 09:07:30 51°14.835 2°43.918 -999 -999 -999 -999
2007-09-11 09:07:35 51°14.833 2°43.914 -999 -999 -999 -999
2007-09-11 09:07:40 51°14.832 2°43.911 -999 -999 -999 -999
2007-09-11 09:07:45 51°14.83 2°43.908 -999 -999 -999 -999
2007-09-11 09:07:50 51°14.828 2°43.906 -999 -999 -999 -999
2007-09-11 09:07:55 51°14.826 2°43.902 -999 -999 -999 -999
2007-09-11 09:08:00 51°14.824 2°43.899 -999 -999 -999 -999
2007-09-11 09:08:05 51°14.823 2°43.896 -999 -999 -999 -999
2007-09-11 09:08:10 51°14.82 2°43.893 -999 -999 -999 -999
2007-09-11 09:08:15 51°14.819 2°43.89 -999 -999 -999 -999
2007-09-11 09:08:20 51°14.817 2°43.887 -999 -999 -999 -999
2007-09-11 09:08:25 51°14.815 2°43.885 -999 -999 -999 -999
2007-09-11 09:08:30 51°14.812 2°43.881 -999 -999 -999 -999
2007-09-11 09:08:35 51°14.811 2°43.879 -999 -999 -999 -999
2007-09-11 09:08:40 51°14.809 2°43.877 -999 -999 -999 -999
2007-09-11 09:08:45 51°14.807 2°43.874 -999 -999 -999 -999
2007-09-11 09:08:50 51°14.805 2°43.871 -999 -999 -999 -999
2007-09-11 09:08:55 51°14.803 2°43.869 -999 -999 -999 -999
2007-09-11 09:09:00 51°14.8 2°43.866 -999 -999 -999 -999
2007-09-11 09:09:05 51°14.799 2°43.863 -999 -999 -999 -999
2007-09-11 09:09:10 51°14.796 2°43.861 -999 -999 -999 -999
2007-09-11 09:09:15 51°14.795 2°43.859 -999 -999 -999 -999
2007-09-11 09:09:20 51°14.792 2°43.856 -999 -999 -999 -999
2007-09-11 09:09:25 51°14.791 2°43.854 -999 -999 -999 -999
2007-09-11 09:09:31 51°14.788 2°43.851 -999 -999 -999 -999
2007-09-11 09:09:36 51°14.786 2°43.848 -999 -999 -999 -999
2007-09-11 09:09:40 51°14.785 2°43.846 -999 -999 -999 -999
2007-09-11 09:09:45 51°14.782 2°43.844 -999 -999 -999 -999
2007-09-11 09:09:50 51°14.78 2°43.842 -999 -999 -999 -999
2007-09-11 09:09:56 51°14.777 2°43.839 -999 -999 -999 -999
2007-09-11 09:10:00 51°14.775 2°43.837 -999 -999 -999 -999
2007-09-11 09:10:05 51°14.773 2°43.835 -999 -999 -999 -999
2007-09-11 09:10:10 51°14.771 2°43.833 -999 -999 -999 -999
2007-09-11 09:10:15 51°14.769 2°43.831 -999 -999 -999 -999
2007-09-11 09:10:20 51°14.767 2°43.83 -999 -999 -999 -999
2007-09-11 09:10:25 51°14.765 2°43.828 -999 -999 -999 -999
2007-09-11 09:10:30 51°14.763 2°43.825 -999 -999 -999 -999
2007-09-11 09:10:35 51°14.76 2°43.824 -999 -999 -999 -999
2007-09-11 09:10:40 51°14.759 2°43.822 -999 -999 -999 -999
2007-09-11 09:10:45 51°14.756 2°43.82 -999 -999 -999 -999
2007-09-11 09:10:50 51°14.754 2°43.818 -999 -999 -999 -999
2007-09-11 09:10:55 51°14.751 2°43.816 -999 -999 -999 -999
2007-09-11 09:11:00 51°14.75 2°43.814 -999 -999 -999 -999
2007-09-11 09:11:05 51°14.747 2°43.812 -999 -999 -999 -999
2007-09-11 09:11:10 51°14.745 2°43.811 -999 -999 -999 -999
2007-09-11 09:11:15 51°14.744 2°43.809 -999 -999 -999 -999
2007-09-11 09:11:20 51°14.741 2°43.807 -999 -999 -999 -999
2007-09-11 09:11:25 51°14.739 2°43.805 -999 -999 -999 -999
2007-09-11 09:11:30 51°14.737 2°43.803 -999 -999 -999 -999
2007-09-11 09:11:35 51°14.735 2°43.801 -999 -999 -999 -999
2007-09-11 09:11:40 51°14.733 2°43.799 -999 -999 -999 -999
2007-09-11 09:11:45 51°14.73 2°43.797 -999 -999 -999 -999
2007-09-11 09:11:50 51°14.729 2°43.796 -999 -999 -999 -999
2007-09-11 09:11:55 51°14.727 2°43.794 -999 -999 -999 -999
2007-09-11 09:12:00 51°14.724 2°43.792 -999 -999 -999 -999
2007-09-11 09:12:05 51°14.723 2°43.791 -999 -999 -999 -999
2007-09-11 09:12:10 51°14.721 2°43.789 -999 -999 -999 -999
2007-09-11 09:12:15 51°14.718 2°43.787 -999 -999 -999 -999
2007-09-11 09:12:20 51°14.717 2°43.786 -999 -999 -999 -999
2007-09-11 09:12:25 51°14.713 2°43.784 -999 -999 -999 -999
2007-09-11 09:12:30 51°14.712 2°43.782 -999 -999 -999 -999
2007-09-11 09:12:36 51°14.709 2°43.779 -999 -999 -999 -999
2007-09-11 09:12:40 51°14.707 2°43.777 -999 -999 -999 -999
2007-09-11 09:12:45 51°14.705 2°43.774 -999 -999 -999 -999
2007-09-11 09:12:50 51°14.703 2°43.77 -999 -999 -999 -999
2007-09-11 09:12:56 51°14.701 2°43.765 -999 -999 -999 -999
2007-09-11 09:13:00 51°14.699 2°43.761 -999 -999 -999 -999
2007-09-11 09:13:05 51°14.697 2°43.757 -999 -999 -999 -999
2007-09-11 09:13:10 51°14.695 2°43.751 -999 -999 -999 -999
2007-09-11 09:13:15 51°14.693 2°43.743 -999 -999 -999 -999
2007-09-11 09:13:20 51°14.692 2°43.734 -999 -999 -999 -999
2007-09-11 09:13:25 51°14.692 2°43.725 -999 -999 -999 -999
2007-09-11 09:13:30 51°14.691 2°43.713 -999 -999 -999 -999
2007-09-11 09:13:35 51°14.692 2°43.702 -999 -999 -999 -999
2007-09-11 09:13:40 51°14.693 2°43.689 -999 -999 -999 -999
2007-09-11 09:13:45 51°14.695 2°43.675 -999 -999 -999 -999
2007-09-11 09:13:50 51°14.698 2°43.662 -999 -999 -999 -999
2007-09-11 09:13:55 51°14.702 2°43.648 -999 -999 -999 -999
2007-09-11 09:14:00 51°14.706 2°43.634 -999 -999 -999 -999
2007-09-11 09:14:05 51°14.711 2°43.619 -999 -999 -999 -999
2007-09-11 09:14:11 51°14.717 2°43.6 -999 -999 -999 -999
2007-09-11 09:14:15 51°14.721 2°43.587 -999 -999 -999 -999
2007-09-11 09:14:20 51°14.727 2°43.571 -999 -999 -999 -999
2007-09-11 09:14:25 51°14.733 2°43.556 -999 -999 -999 -999
2007-09-11 09:14:31 51°14.741 2°43.538 -999 -999 -999 -999
2007-09-11 09:14:36 51°14.748 2°43.521 -999 -999 -999 -999
2007-09-11 09:14:41 51°14.754 2°43.505 -999 -999 -999 -999
2007-09-11 09:14:46 51°14.762 2°43.489 -999 -999 -999 -999
2007-09-11 09:14:51 51°14.769 2°43.473 -999 -999 -999 -999
2007-09-11 09:14:56 51°14.776 2°43.455 -999 -999 -999 -999
2007-09-11 09:15:01 51°14.784 2°43.438 -999 -999 -999 -999
2007-09-11 09:15:05 51°14.79 2°43.425 -999 -999 -999 -999
2007-09-11 09:15:11 51°14.8 2°43.403 -999 -999 -999 -999
2007-09-11 09:15:16 51°14.808 2°43.386 -999 -999 -999 -999
2007-09-11 09:15:21 51°14.815 2°43.368 -999 -999 -999 -999
2007-09-11 09:15:25 51°14.822 2°43.354 -999 -999 -999 -999
2007-09-11 09:15:30 51°14.83 2°43.335 -999 -999 -999 -999
2007-09-11 09:15:35 51°14.838 2°43.317 -999 -999 -999 -999
2007-09-11 09:15:40 51°14.846 2°43.297 -999 -999 -999 -999
2007-09-11 09:15:45 51°14.854 2°43.278 -999 -999 -999 -999
2007-09-11 09:15:50 51°14.862 2°43.259 -999 -999 -999 -999
2007-09-11 09:15:55 51°14.87 2°43.24 -999 -999 -999 -999
2007-09-11 09:16:00 51°14.878 2°43.221 -999 -999 -999 -999
2007-09-11 09:16:05 51°14.887 2°43.202 -999 -999 -999 -999
2007-09-11 09:16:10 51°14.895 2°43.183 -999 -999 -999 -999
2007-09-11 09:16:15 51°14.903 2°43.163 -999 -999 -999 -999
2007-09-11 09:16:20 51°14.911 2°43.144 -999 -999 -999 -999
2007-09-11 09:16:25 51°14.918 2°43.124 -999 -999 -999 -999
2007-09-11 09:16:30 51°14.926 2°43.104 -999 -999 -999 -999
2007-09-11 09:16:35 51°14.933 2°43.083 -999 -999 -999 -999
2007-09-11 09:16:40 51°14.942 2°43.065 -999 -999 -999 -999
2007-09-11 09:16:45 51°14.949 2°43.045 -999 -999 -999 -999
2007-09-11 09:16:51 51°14.958 2°43.023 -999 -999 -999 -999
2007-09-11 09:16:55 51°14.964 2°43.008 -999 -999 -999 -999
2007-09-11 09:17:00 51°14.972 2°42.989 -999 -999 -999 -999
2007-09-11 09:17:05 51°14.979 2°42.969 -999 -999 -999 -999
2007-09-11 09:17:10 51°14.987 2°42.951 -999 -999 -999 -999
2007-09-11 09:17:16 51°14.996 2°42.928 -999 -999 -999 -999
2007-09-11 09:17:20 51°15.003 2°42.914 -999 -999 -999 -999
2007-09-11 09:17:25 51°15.009 2°42.895 -999 -999 -999 -999
2007-09-11 09:17:30 51°15.018 2°42.877 -999 -999 -999 -999
2007-09-11 09:17:35 51°15.025 2°42.859 -999 -999 -999 -999
2007-09-11 09:17:40 51°15.033 2°42.84 -999 -999 -999 -999
2007-09-11 09:17:45 51°15.041 2°42.822 -999 -999 -999 -999
2007-09-11 09:17:50 51°15.048 2°42.804 -999 -999 -999 -999
2007-09-11 09:17:55 51°15.056 2°42.785 -999 -999 -999 -999
2007-09-11 09:18:00 51°15.063 2°42.765 -999 -999 -999 -999
2007-09-11 09:18:05 51°15.071 2°42.747 -999 -999 -999 -999
2007-09-11 09:18:10 51°15.079 2°42.728 -999 -999 -999 -999
2007-09-11 09:18:15 51°15.086 2°42.709 -999 -999 -999 -999
2007-09-11 09:18:20 51°15.093 2°42.69 -999 -999 -999 -999
2007-09-11 09:18:25 51°15.101 2°42.672 -999 -999 -999 -999
2007-09-11 09:18:31 51°15.11 2°42.649 -999 -999 -999 -999
2007-09-11 09:18:36 51°15.118 2°42.631 -999 -999 -999 -999
2007-09-11 09:18:40 51°15.124 2°42.615 -999 -999 -999 -999
2007-09-11 09:18:45 51°15.133 2°42.597 -999 -999 -999 -999
2007-09-11 09:18:51 51°15.141 2°42.574 -999 -999 -999 -999
2007-09-11 09:18:56 51°15.15 2°42.556 -999 -999 -999 -999
2007-09-11 09:19:00 51°15.156 2°42.54 -999 -999 -999 -999
2007-09-11 09:19:05 51°15.164 2°42.522 -999 -999 -999 -999
2007-09-11 09:19:11 51°15.173 2°42.498 -999 -999 -999 -999
2007-09-11 09:19:16 51°15.181 2°42.481 -999 -999 -999 -999
2007-09-11 09:19:21 51°15.189 2°42.462 -999 -999 -999 -999
2007-09-11 09:19:25 51°15.195 2°42.447 -999 -999 -999 -999
2007-09-11 09:19:30 51°15.203 2°42.428 -999 -999 -999 -999
2007-09-11 09:19:36 51°15.211 2°42.406 -999 -999 -999 -999
2007-09-11 09:19:40 51°15.217 2°42.391 -999 -999 -999 -999
2007-09-11 09:19:45 51°15.225 2°42.373 -999 -999 -999 -999
2007-09-11 09:19:50 51°15.233 2°42.355 -999 -999 -999 -999
2007-09-11 09:19:55 51°15.241 2°42.336 -999 -999 -999 -999
2007-09-11 09:20:01 51°15.251 2°42.314 -999 -999 -999 -999
2007-09-11 09:20:05 51°15.257 2°42.298 -999 -999 -999 -999
2007-09-11 09:20:10 51°15.266 2°42.281 -999 -999 -999 -999
2007-09-11 09:20:15 51°15.273 2°42.26 -999 -999 -999 -999
2007-09-11 09:20:20 51°15.281 2°42.243 -999 -999 -999 -999
2007-09-11 09:20:26 51°15.288 2°42.219 -999 -999 -999 -999
2007-09-11 09:20:31 51°15.296 2°42.202 -999 -999 -999 -999
2007-09-11 09:20:36 51°15.301 2°42.181 -999 -999 -999 -999
2007-09-11 09:20:41 51°15.309 2°42.165 -999 -999 -999 -999
2007-09-11 09:20:46 51°15.316 2°42.146 -999 -999 -999 -999
2007-09-11 09:20:51 51°15.325 2°42.13 -999 -999 -999 -999
2007-09-11 09:20:56 51°15.332 2°42.112 -999 -999 -999 -999
2007-09-11 09:21:00 51°15.338 2°42.098 -999 -999 -999 -999
2007-09-11 09:21:05 51°15.345 2°42.08 -999 -999 -999 -999
2007-09-11 09:21:11 51°15.355 2°42.059 -999 -999 -999 -999
2007-09-11 09:21:15 51°15.361 2°42.045 -999 -999 -999 -999
2007-09-11 09:21:20 51°15.369 2°42.027 -999 -999 -999 -999
2007-09-11 09:21:25 51°15.377 2°42.009 -999 -999 -999 -999
2007-09-11 09:21:31 51°15.387 2°41.987 -999 -999 -999 -999
2007-09-11 09:21:36 51°15.396 2°41.971 -999 -999 -999 -999
2007-09-11 09:21:41 51°15.403 2°41.953 -999 -999 -999 -999
2007-09-11 09:21:46 51°15.411 2°41.936 -999 -999 -999 -999
2007-09-11 09:21:52 51°15.42 2°41.918 -999 -999 -999 -999
2007-09-11 09:21:57 51°15.428 2°41.902 -999 -999 -999 -999
2007-09-11 09:22:01 51°15.434 2°41.889 -999 -999 -999 -999
2007-09-11 09:22:06 51°15.443 2°41.872 -999 -999 -999 -999
2007-09-11 09:22:12 51°15.453 2°41.853 -999 -999 -999 -999
2007-09-11 09:22:16 51°15.459 2°41.839 -999 -999 -999 -999
2007-09-11 09:22:22 51°15.469 2°41.82 -999 -999 -999 -999
2007-09-11 09:22:27 51°15.477 2°41.805 -999 -999 -999 -999
2007-09-11 09:22:32 51°15.486 2°41.789 -999 -999 -999 -999
2007-09-11 09:22:36 51°15.493 2°41.777 -999 -999 -999 -999
2007-09-11 09:22:41 51°15.502 2°41.762 -999 -999 -999 -999
2007-09-11 09:22:46 51°15.511 2°41.746 -999 -999 -999 -999
2007-09-11 09:22:51 51°15.52 2°41.729 -999 -999 -999 -999
2007-09-11 09:22:56 51°15.529 2°41.714 -999 -999 -999 -999
2007-09-11 09:23:01 51°15.538 2°41.697 -999 -999 -999 -999
2007-09-11 09:23:06 51°15.547 2°41.682 -999 -999 -999 -999
2007-09-11 09:23:11 51°15.555 2°41.666 -999 -999 -999 -999
2007-09-11 09:23:16 51°15.564 2°41.65 -999 -999 -999 -999
2007-09-11 09:23:21 51°15.572 2°41.634 -999 -999 -999 -999